Year,Month,Day,Hour,Minute,Value (Times are PST for temperature in C)
2013,04,25,00,00,7.60
2013,04,25,00,01,7.60
2013,04,25,00,02,7.60
2013,04,25,00,03,7.60
2013,04,25,00,04,7.70
2013,04,25,00,05,7.70
2013,04,25,00,06,7.70
2013,04,25,00,07,7.70
2013,04,25,00,08,7.80
2013,04,25,00,09,7.80
2013,04,25,00,10,7.80
2013,04,25,00,11,7.80
2013,04,25,00,12,7.80
2013,04,25,00,13,7.80
2013,04,25,00,14,7.80
2013,04,25,00,15,7.80
2013,04,25,00,16,7.80
2013,04,25,00,17,7.80
2013,04,25,00,18,7.80
2013,04,25,00,19,7.80
2013,04,25,00,20,7.80
2013,04,25,00,21,7.80
2013,04,25,00,22,7.80
2013,04,25,00,23,7.70
2013,04,25,00,24,7.70
2013,04,25,00,25,7.70
2013,04,25,00,26,7.70
2013,04,25,00,27,7.70
2013,04,25,00,28,7.60
2013,04,25,00,29,7.60
2013,04,25,00,30,7.60
2013,04,25,00,31,7.60
2013,04,25,00,32,7.60
2013,04,25,00,33,7.60
2013,04,25,00,34,7.50
2013,04,25,00,35,7.50
2013,04,25,00,36,7.50
2013,04,25,00,37,7.50
2013,04,25,00,38,7.40
2013,04,25,00,39,7.40
2013,04,25,00,40,7.40
2013,04,25,00,41,7.40
2013,04,25,00,42,7.30
2013,04,25,00,43,7.30
2013,04,25,00,44,7.30
2013,04,25,00,45,7.30
2013,04,25,00,46,7.30
2013,04,25,00,47,7.30
2013,04,25,00,48,7.30
2013,04,25,00,49,7.30
2013,04,25,00,50,7.30
2013,04,25,00,51,7.30
2013,04,25,00,52,7.30
2013,04,25,00,53,7.20
2013,04,25,00,54,7.20
2013,04,25,00,55,7.20
2013,04,25,00,56,7.20
2013,04,25,00,57,7.20
2013,04,25,00,58,7.10
2013,04,25,00,59,7.10
2013,04,25,01,00,7.10
2013,04,25,01,01,7.10
2013,04,25,01,02,7.10
2013,04,25,01,03,7.10
2013,04,25,01,04,7.00
2013,04,25,01,05,7.00
2013,04,25,01,06,7.00
2013,04,25,01,07,7.00
2013,04,25,01,08,7.00
2013,04,25,01,09,7.00
2013,04,25,01,10,6.90
2013,04,25,01,11,6.90
2013,04,25,01,12,6.90
2013,04,25,01,13,6.90
2013,04,25,01,14,6.90
2013,04,25,01,15,6.90
2013,04,25,01,16,6.90
2013,04,25,01,17,6.90
2013,04,25,01,18,6.90
2013,04,25,01,19,6.90
2013,04,25,01,20,6.90
2013,04,25,01,21,6.90
2013,04,25,01,22,6.90
2013,04,25,01,23,6.80
2013,04,25,01,24,6.80
2013,04,25,01,25,6.80
2013,04,25,01,26,6.80
2013,04,25,01,27,6.80
2013,04,25,01,28,6.80
2013,04,25,01,29,6.80
2013,04,25,01,30,6.80
2013,04,25,01,31,6.80
2013,04,25,01,32,6.80
2013,04,25,01,33,6.80
2013,04,25,01,34,6.80
2013,04,25,01,35,6.80
2013,04,25,01,36,6.80
2013,04,25,01,37,6.80
2013,04,25,01,38,6.80
2013,04,25,01,39,6.80
2013,04,25,01,40,6.80
2013,04,25,01,41,6.80
2013,04,25,01,42,6.80
2013,04,25,01,43,6.80
2013,04,25,01,44,6.80
2013,04,25,01,45,6.80
2013,04,25,01,46,6.80
2013,04,25,01,47,6.80
2013,04,25,01,48,6.80
2013,04,25,01,49,6.80
2013,04,25,01,50,6.80
2013,04,25,01,51,6.80
2013,04,25,01,52,6.80
2013,04,25,01,53,6.80
2013,04,25,01,54,6.70
2013,04,25,01,55,6.70
2013,04,25,01,56,6.70
2013,04,25,01,57,6.70
2013,04,25,01,58,6.70
2013,04,25,01,59,6.70
2013,04,25,02,00,6.70
2013,04,25,02,01,6.60
2013,04,25,02,02,6.60
2013,04,25,02,03,6.60
2013,04,25,02,04,6.60
2013,04,25,02,05,6.60
2013,04,25,02,06,6.60
2013,04,25,02,07,6.60
2013,04,25,02,08,6.60
2013,04,25,02,09,6.60
2013,04,25,02,10,6.60
2013,04,25,02,11,6.60
2013,04,25,02,12,6.60
2013,04,25,02,13,6.60
2013,04,25,02,14,6.60
2013,04,25,02,15,6.50
2013,04,25,02,16,6.40
2013,04,25,02,17,6.40
2013,04,25,02,18,6.40
2013,04,25,02,19,6.40
2013,04,25,02,20,6.40
2013,04,25,02,21,6.40
2013,04,25,02,22,6.40
2013,04,25,02,23,6.40
2013,04,25,02,24,6.40
2013,04,25,02,25,6.40
2013,04,25,02,26,6.40
2013,04,25,02,27,6.40
2013,04,25,02,28,6.40
2013,04,25,02,29,6.40
2013,04,25,02,30,6.40
2013,04,25,02,31,6.40
2013,04,25,02,32,6.40
2013,04,25,02,33,6.40
2013,04,25,02,34,6.40
2013,04,25,02,35,6.40
2013,04,25,02,36,6.40
2013,04,25,02,37,6.40
2013,04,25,02,38,6.40
2013,04,25,02,39,6.40
2013,04,25,02,40,6.40
2013,04,25,02,41,6.40
2013,04,25,02,42,6.40
2013,04,25,02,43,6.40
2013,04,25,02,44,6.40
2013,04,25,02,45,6.40
2013,04,25,02,46,6.40
2013,04,25,02,47,6.40
2013,04,25,02,48,6.40
2013,04,25,02,49,6.40
2013,04,25,02,50,6.40
2013,04,25,02,51,6.30
2013,04,25,02,52,6.30
2013,04,25,02,53,6.30
2013,04,25,02,54,6.30
2013,04,25,02,55,6.30
2013,04,25,02,56,6.30
2013,04,25,02,57,6.30
2013,04,25,02,58,6.30
2013,04,25,02,59,6.30
2013,04,25,03,00,6.30
2013,04,25,03,01,6.30
2013,04,25,03,02,6.30
2013,04,25,03,03,6.30
2013,04,25,03,04,6.30
2013,04,25,03,05,6.30
2013,04,25,03,06,6.30
2013,04,25,03,07,6.30
2013,04,25,03,08,6.30
2013,04,25,03,09,6.30
2013,04,25,03,10,6.30
2013,04,25,03,11,6.30
2013,04,25,03,12,6.30
2013,04,25,03,13,6.30
2013,04,25,03,14,6.30
2013,04,25,03,15,6.30
2013,04,25,03,16,6.30
2013,04,25,03,17,6.30
2013,04,25,03,18,6.30
2013,04,25,03,19,6.30
2013,04,25,03,20,6.30
2013,04,25,03,21,6.30
2013,04,25,03,22,6.30
2013,04,25,03,23,6.20
2013,04,25,03,24,6.20
2013,04,25,03,25,6.20
2013,04,25,03,26,6.20
2013,04,25,03,27,6.20
2013,04,25,03,28,6.20
2013,04,25,03,29,6.20
2013,04,25,03,30,6.20
2013,04,25,03,31,6.20
2013,04,25,03,32,6.20
2013,04,25,03,33,6.20
2013,04,25,03,34,6.20
2013,04,25,03,35,6.20
2013,04,25,03,36,6.20
2013,04,25,03,37,6.20
2013,04,25,03,38,6.20
2013,04,25,03,39,6.20
2013,04,25,03,40,6.20
2013,04,25,03,41,6.20
2013,04,25,03,42,6.20
2013,04,25,03,43,6.20
2013,04,25,03,44,6.20
2013,04,25,03,45,6.20
2013,04,25,03,46,6.10
2013,04,25,03,47,6.10
2013,04,25,03,48,6.10
2013,04,25,03,49,6.10
2013,04,25,03,50,6.10
2013,04,25,03,51,6.10
2013,04,25,03,52,6.00
2013,04,25,03,53,6.00
2013,04,25,03,54,6.00
2013,04,25,03,55,6.00
2013,04,25,03,56,6.00
2013,04,25,03,57,6.00
2013,04,25,03,58,6.00
2013,04,25,03,59,5.90
2013,04,25,04,00,5.90
2013,04,25,04,01,5.90
2013,04,25,04,02,5.90
2013,04,25,04,03,5.90
2013,04,25,04,04,5.90
2013,04,25,04,05,5.90
2013,04,25,04,06,5.80
2013,04,25,04,07,5.80
2013,04,25,04,08,5.80
2013,04,25,04,09,5.80
2013,04,25,04,10,5.70
2013,04,25,04,11,5.70
2013,04,25,04,12,5.70
2013,04,25,04,13,5.70
2013,04,25,04,14,5.70
2013,04,25,04,15,5.70
2013,04,25,04,16,5.70
2013,04,25,04,17,5.70
2013,04,25,04,18,5.70
2013,04,25,04,19,5.70
2013,04,25,04,20,5.80
2013,04,25,04,21,5.80
2013,04,25,04,22,5.80
2013,04,25,04,23,5.80
2013,04,25,04,24,5.80
2013,04,25,04,25,5.70
2013,04,25,04,26,5.70
2013,04,25,04,27,5.70
2013,04,25,04,28,5.70
2013,04,25,04,29,5.70
2013,04,25,04,30,5.70
2013,04,25,04,31,5.70
2013,04,25,04,32,5.70
2013,04,25,04,33,5.70
2013,04,25,04,34,5.70
2013,04,25,04,35,5.70
2013,04,25,04,36,5.70
2013,04,25,04,37,5.70
2013,04,25,04,38,5.70
2013,04,25,04,39,5.70
2013,04,25,04,40,5.70
2013,04,25,04,41,5.70
2013,04,25,04,42,5.70
2013,04,25,04,43,5.70
2013,04,25,04,44,5.70
2013,04,25,04,45,5.70
2013,04,25,04,46,5.70
2013,04,25,04,47,5.70
2013,04,25,04,48,5.70
2013,04,25,04,49,5.70
2013,04,25,04,50,5.70
2013,04,25,04,51,5.70
2013,04,25,04,52,5.70
2013,04,25,04,53,5.60
2013,04,25,04,54,5.60
2013,04,25,04,55,5.60
2013,04,25,04,56,5.60
2013,04,25,04,57,5.50
2013,04,25,04,58,5.50
2013,04,25,04,59,5.50
2013,04,25,05,00,5.50
2013,04,25,05,01,5.50
2013,04,25,05,02,5.50
2013,04,25,05,03,5.40
2013,04,25,05,04,5.40
2013,04,25,05,05,5.40
2013,04,25,05,06,5.40
2013,04,25,05,07,5.40
2013,04,25,05,08,5.30
2013,04,25,05,09,5.30
2013,04,25,05,10,5.30
2013,04,25,05,11,5.30
2013,04,25,05,12,5.30
2013,04,25,05,13,5.30
2013,04,25,05,14,5.30
2013,04,25,05,15,5.20
2013,04,25,05,16,5.20
2013,04,25,05,17,5.20
2013,04,25,05,18,5.20
2013,04,25,05,19,5.20
2013,04,25,05,20,5.20
2013,04,25,05,21,5.20
2013,04,25,05,22,5.20
2013,04,25,05,23,5.20
2013,04,25,05,24,5.20
2013,04,25,05,25,5.20
2013,04,25,05,26,5.20
2013,04,25,05,27,5.20
2013,04,25,05,28,5.10
2013,04,25,05,29,5.10
2013,04,25,05,30,5.10
2013,04,25,05,31,5.10
2013,04,25,05,32,5.10
2013,04,25,05,33,5.10
2013,04,25,05,34,5.10
2013,04,25,05,35,5.10
2013,04,25,05,36,5.10
2013,04,25,05,37,5.10
2013,04,25,05,38,5.10
2013,04,25,05,39,5.10
2013,04,25,05,40,5.10
2013,04,25,05,41,5.10
2013,04,25,05,42,5.10
2013,04,25,05,43,5.10
2013,04,25,05,44,5.10
2013,04,25,05,45,5.10
2013,04,25,05,46,5.10
2013,04,25,05,47,5.10
2013,04,25,05,48,5.10
2013,04,25,05,49,5.10
2013,04,25,05,50,5.10
2013,04,25,05,51,5.10
2013,04,25,05,52,5.10
2013,04,25,05,53,5.10
2013,04,25,05,54,5.10
2013,04,25,05,55,5.10
2013,04,25,05,56,5.10
2013,04,25,05,57,5.10
2013,04,25,05,58,5.10
2013,04,25,05,59,5.10
2013,04,25,06,00,5.10
2013,04,25,06,01,5.10
2013,04,25,06,02,5.10
2013,04,25,06,03,5.10
2013,04,25,06,04,5.00
2013,04,25,06,05,4.90
2013,04,25,06,06,4.90
2013,04,25,06,07,4.90
2013,04,25,06,08,4.90
2013,04,25,06,09,4.90
2013,04,25,06,10,4.90
2013,04,25,06,11,4.90
2013,04,25,06,12,4.90
2013,04,25,06,13,4.90
2013,04,25,06,14,4.90
2013,04,25,06,15,4.90
2013,04,25,06,16,4.90
2013,04,25,06,17,4.90
2013,04,25,06,18,4.90
2013,04,25,06,19,4.90
2013,04,25,06,20,4.90
2013,04,25,06,21,4.90
2013,04,25,06,22,4.90
2013,04,25,06,23,4.90
2013,04,25,06,24,4.90
2013,04,25,06,25,4.90
2013,04,25,06,26,4.90
2013,04,25,06,27,4.90
2013,04,25,06,28,4.90
2013,04,25,06,29,4.90
2013,04,25,06,30,4.90
2013,04,25,06,31,4.90
2013,04,25,06,32,4.90
2013,04,25,06,33,4.90
2013,04,25,06,34,4.90
2013,04,25,06,35,4.90
2013,04,25,06,36,4.90
2013,04,25,06,37,4.80
2013,04,25,06,38,4.80
2013,04,25,06,39,4.80
2013,04,25,06,40,4.80
2013,04,25,06,41,4.80
2013,04,25,06,42,4.80
2013,04,25,06,43,4.80
2013,04,25,06,44,4.80
2013,04,25,06,45,4.80
2013,04,25,06,46,4.80
2013,04,25,06,47,4.80
2013,04,25,06,48,4.70
2013,04,25,06,49,4.70
2013,04,25,06,50,4.70
2013,04,25,06,51,4.70
2013,04,25,06,52,4.80
2013,04,25,06,53,4.80
2013,04,25,06,54,4.80
2013,04,25,06,55,4.80
2013,04,25,06,56,4.80
2013,04,25,06,57,4.80
2013,04,25,06,58,4.80
2013,04,25,06,59,4.80
2013,04,25,07,00,4.80
2013,04,25,07,01,4.80
2013,04,25,07,02,4.90
2013,04,25,07,03,4.90
2013,04,25,07,04,4.90
2013,04,25,07,05,4.90
2013,04,25,07,06,4.90
2013,04,25,07,07,4.90
2013,04,25,07,08,4.90
2013,04,25,07,09,5.00
2013,04,25,07,10,5.10
2013,04,25,07,11,5.10
2013,04,25,07,12,5.10
2013,04,25,07,13,5.10
2013,04,25,07,14,5.10
2013,04,25,07,15,5.10
2013,04,25,07,16,5.10
2013,04,25,07,17,5.10
2013,04,25,07,18,5.10
2013,04,25,07,19,5.10
2013,04,25,07,20,5.10
2013,04,25,07,21,5.10
2013,04,25,07,22,5.10
2013,04,25,07,23,5.10
2013,04,25,07,24,5.20
2013,04,25,07,25,5.20
2013,04,25,07,26,5.20
2013,04,25,07,27,5.30
2013,04,25,07,28,5.30
2013,04,25,07,29,5.30
2013,04,25,07,30,5.30
2013,04,25,07,31,5.30
2013,04,25,07,32,5.30
2013,04,25,07,33,5.30
2013,04,25,07,34,5.40
2013,04,25,07,35,5.40
2013,04,25,07,36,5.40
2013,04,25,07,37,5.40
2013,04,25,07,38,5.50
2013,04,25,07,39,5.50
2013,04,25,07,40,5.50
2013,04,25,07,41,5.50
2013,04,25,07,42,5.60
2013,04,25,07,43,5.60
2013,04,25,07,44,5.60
2013,04,25,07,45,5.60
2013,04,25,07,46,5.60
2013,04,25,07,47,5.70
2013,04,25,07,48,5.70
2013,04,25,07,49,5.70
2013,04,25,07,50,5.70
2013,04,25,07,51,5.70
2013,04,25,07,52,5.70
2013,04,25,07,53,5.80
2013,04,25,07,54,5.80
2013,04,25,07,55,5.80
2013,04,25,07,56,5.90
2013,04,25,07,57,5.90
2013,04,25,07,58,5.90
2013,04,25,07,59,6.00
2013,04,25,08,00,6.00
2013,04,25,08,01,6.10
2013,04,25,08,02,6.10
2013,04,25,08,03,6.20
2013,04,25,08,04,6.20
2013,04,25,08,05,6.20
2013,04,25,08,06,6.20
2013,04,25,08,07,6.30
2013,04,25,08,08,6.30
2013,04,25,08,09,6.40
2013,04,25,08,10,6.40
2013,04,25,08,11,6.40
2013,04,25,08,12,6.50
2013,04,25,08,13,6.60
2013,04,25,08,14,6.60
2013,04,25,08,15,6.60
2013,04,25,08,16,6.70
2013,04,25,08,17,6.70
2013,04,25,08,18,6.80
2013,04,25,08,19,6.80
2013,04,25,08,20,6.90
2013,04,25,08,21,6.90
2013,04,25,08,22,7.00
2013,04,25,08,23,7.10
2013,04,25,08,24,7.10
2013,04,25,08,25,7.20
2013,04,25,08,26,7.30
2013,04,25,08,27,7.30
2013,04,25,08,28,7.30
2013,04,25,08,29,7.40
2013,04,25,08,30,7.50
2013,04,25,08,31,7.50
2013,04,25,08,32,7.60
2013,04,25,08,33,7.70
2013,04,25,08,34,7.80
2013,04,25,08,35,7.80
2013,04,25,08,36,7.90
2013,04,25,08,37,8.00
2013,04,25,08,38,8.10
2013,04,25,08,39,8.20
2013,04,25,08,40,8.30
2013,04,25,08,41,8.40
2013,04,25,08,42,8.50
2013,04,25,08,43,8.70
2013,04,25,08,44,8.70
2013,04,25,08,45,8.90
2013,04,25,08,46,8.90
2013,04,25,08,47,9.00
2013,04,25,08,48,9.10
2013,04,25,08,49,9.20
2013,04,25,08,50,9.30
2013,04,25,08,51,9.30
2013,04,25,08,52,9.40
2013,04,25,08,53,9.50
2013,04,25,08,54,9.60
2013,04,25,08,55,9.60
2013,04,25,08,56,9.70
2013,04,25,08,57,9.70
2013,04,25,08,58,9.80
2013,04,25,08,59,9.90
2013,04,25,09,00,9.90
2013,04,25,09,01,9.90
2013,04,25,09,02,10.00
2013,04,25,09,03,10.10
2013,04,25,09,04,10.10
2013,04,25,09,05,10.10
2013,04,25,09,06,10.20
2013,04,25,09,07,10.20
2013,04,25,09,08,10.30
2013,04,25,09,09,10.40
2013,04,25,09,10,10.40
2013,04,25,09,11,10.60
2013,04,25,09,12,10.60
2013,04,25,09,13,10.70
2013,04,25,09,14,10.70
2013,04,25,09,15,10.70
2013,04,25,09,16,10.80
2013,04,25,09,17,10.80
2013,04,25,09,18,10.90
2013,04,25,09,19,10.90
2013,04,25,09,20,10.90
2013,04,25,09,21,10.90
2013,04,25,09,22,10.90
2013,04,25,09,23,10.90
2013,04,25,09,24,11.10
2013,04,25,09,25,11.10
2013,04,25,09,26,11.10
2013,04,25,09,27,11.10
2013,04,25,09,28,11.10
2013,04,25,09,29,11.20
2013,04,25,09,30,11.20
2013,04,25,09,31,11.20
2013,04,25,09,32,11.20
2013,04,25,09,33,11.30
2013,04,25,09,34,11.30
2013,04,25,09,35,11.30
2013,04,25,09,36,11.30
2013,04,25,09,37,11.40
2013,04,25,09,38,11.40
2013,04,25,09,39,11.40
2013,04,25,09,40,11.40
2013,04,25,09,41,11.40
2013,04,25,09,42,11.40
2013,04,25,09,43,11.40
2013,04,25,09,44,11.40
2013,04,25,09,45,11.40
2013,04,25,09,46,11.40
2013,04,25,09,47,11.50
2013,04,25,09,48,11.60
2013,04,25,09,49,11.60
2013,04,25,09,50,11.60
2013,04,25,09,51,11.60
2013,04,25,09,52,11.60
2013,04,25,09,53,11.60
2013,04,25,09,54,11.70
2013,04,25,09,55,11.70
2013,04,25,09,56,11.80
2013,04,25,09,57,11.80
2013,04,25,09,58,11.80
2013,04,25,09,59,11.90
2013,04,25,10,00,11.90
2013,04,25,10,01,12.00
2013,04,25,10,02,12.00
2013,04,25,10,03,12.00
2013,04,25,10,04,12.00
2013,04,25,10,05,12.00
2013,04,25,10,06,12.10
2013,04,25,10,07,12.10
2013,04,25,10,08,12.10
2013,04,25,10,09,12.10
2013,04,25,10,10,12.20
2013,04,25,10,11,12.20
2013,04,25,10,12,12.30
2013,04,25,10,13,12.30
2013,04,25,10,14,12.30
2013,04,25,10,15,12.30
2013,04,25,10,16,12.40
2013,04,25,10,17,12.40
2013,04,25,10,18,12.40
2013,04,25,10,19,12.50
2013,04,25,10,20,12.50
2013,04,25,10,21,12.50
2013,04,25,10,22,12.50
2013,04,25,10,23,12.60
2013,04,25,10,24,12.60
2013,04,25,10,25,12.60
2013,04,25,10,26,12.70
2013,04,25,10,27,12.70
2013,04,25,10,28,12.70
2013,04,25,10,29,12.80
2013,04,25,10,30,12.80
2013,04,25,10,31,12.80
2013,04,25,10,32,12.80
2013,04,25,10,33,12.80
2013,04,25,10,34,12.90
2013,04,25,10,35,12.90
2013,04,25,10,36,12.90
2013,04,25,10,37,13.00
2013,04,25,10,38,13.00
2013,04,25,10,39,13.00
2013,04,25,10,40,13.10
2013,04,25,10,41,13.10
2013,04,25,10,42,13.10
2013,04,25,10,43,13.10
2013,04,25,10,44,13.20
2013,04,25,10,45,13.20
2013,04,25,10,46,13.30
2013,04,25,10,47,13.30
2013,04,25,10,48,13.30
2013,04,25,10,49,13.30
2013,04,25,10,50,13.30
2013,04,25,10,51,13.30
2013,04,25,10,52,13.30
2013,04,25,10,53,13.30
2013,04,25,10,54,13.30
2013,04,25,10,55,13.30
2013,04,25,10,56,13.40
2013,04,25,10,57,13.40
2013,04,25,10,58,13.40
2013,04,25,10,59,13.40
2013,04,25,11,00,13.40
2013,04,25,11,01,13.40
2013,04,25,11,02,13.40
2013,04,25,11,03,13.50
2013,04,25,11,04,13.50
2013,04,25,11,05,13.50
2013,04,25,11,06,13.50
2013,04,25,11,07,13.50
2013,04,25,11,08,13.50
2013,04,25,11,09,13.50
2013,04,25,11,10,13.50
2013,04,25,11,11,13.60
2013,04,25,11,12,13.60
2013,04,25,11,13,13.60
2013,04,25,11,14,13.70
2013,04,25,11,15,13.70
2013,04,25,11,16,13.70
2013,04,25,11,17,13.70
2013,04,25,11,18,13.70
2013,04,25,11,19,13.70
2013,04,25,11,20,13.70
2013,04,25,11,21,13.70
2013,04,25,11,22,13.70
2013,04,25,11,23,13.70
2013,04,25,11,24,13.80
2013,04,25,11,25,13.80
2013,04,25,11,26,13.80
2013,04,25,11,27,13.80
2013,04,25,11,28,13.80
2013,04,25,11,29,13.80
2013,04,25,11,30,13.80
2013,04,25,11,31,13.90
2013,04,25,11,32,13.90
2013,04,25,11,33,14.00
2013,04,25,11,34,14.00
2013,04,25,11,35,14.00
2013,04,25,11,36,14.00
2013,04,25,11,37,14.10
2013,04,25,11,38,14.10
2013,04,25,11,39,14.10
2013,04,25,11,40,14.20
2013,04,25,11,41,14.20
2013,04,25,11,42,14.20
2013,04,25,11,43,14.20
2013,04,25,11,44,14.20
2013,04,25,11,45,14.20
2013,04,25,11,46,14.20
2013,04,25,11,47,14.20
2013,04,25,11,48,14.20
2013,04,25,11,49,14.20
2013,04,25,11,50,14.30
2013,04,25,11,51,14.30
2013,04,25,11,52,14.30
2013,04,25,11,53,14.30
2013,04,25,11,54,14.40
2013,04,25,11,55,14.40
2013,04,25,11,56,14.40
2013,04,25,11,57,14.40
2013,04,25,11,58,14.40
2013,04,25,11,59,14.40
2013,04,25,12,00,14.40
2013,04,25,12,01,14.40
2013,04,25,12,02,14.40
2013,04,25,12,03,14.50
2013,04,25,12,04,14.50
2013,04,25,12,05,14.50
2013,04,25,12,06,14.50
2013,04,25,12,07,14.50
2013,04,25,12,08,14.50
2013,04,25,12,09,14.50
2013,04,25,12,10,14.50
2013,04,25,12,11,14.50
2013,04,25,12,12,14.50
2013,04,25,12,13,14.60
2013,04,25,12,14,14.60
2013,04,25,12,15,14.70
2013,04,25,12,16,14.70
2013,04,25,12,17,14.80
2013,04,25,12,18,14.80
2013,04,25,12,19,14.80
2013,04,25,12,20,14.80
2013,04,25,12,21,14.80
2013,04,25,12,22,14.90
2013,04,25,12,23,14.90
2013,04,25,12,24,15.00
2013,04,25,12,25,15.00
2013,04,25,12,26,15.00
2013,04,25,12,27,15.10
2013,04,25,12,28,15.10
2013,04,25,12,29,15.10
2013,04,25,12,30,15.20
2013,04,25,12,31,15.20
2013,04,25,12,32,15.30
2013,04,25,12,33,15.30
2013,04,25,12,34,15.30
2013,04,25,12,35,15.30
2013,04,25,12,36,15.30
2013,04,25,12,37,15.40
2013,04,25,12,38,15.40
2013,04,25,12,39,15.40
2013,04,25,12,40,15.40
2013,04,25,12,41,15.50
2013,04,25,12,42,15.50
2013,04,25,12,43,15.50
2013,04,25,12,44,15.50
2013,04,25,12,45,15.50
2013,04,25,12,46,15.40
2013,04,25,12,47,15.40
2013,04,25,12,48,15.40
2013,04,25,12,49,15.40
2013,04,25,12,50,15.50
2013,04,25,12,51,15.50
2013,04,25,12,52,15.50
2013,04,25,12,53,15.50
2013,04,25,12,54,15.60
2013,04,25,12,55,15.60
2013,04,25,12,56,15.60
2013,04,25,12,57,15.70
2013,04,25,12,58,15.80
2013,04,25,12,59,15.90
2013,04,25,13,00,16.00
2013,04,25,13,01,16.10
2013,04,25,13,02,16.10
2013,04,25,13,03,16.10
2013,04,25,13,04,16.10
2013,04,25,13,05,16.10
2013,04,25,13,06,16.10
2013,04,25,13,07,16.10
2013,04,25,13,08,16.10
2013,04,25,13,09,16.10
2013,04,25,13,10,16.20
2013,04,25,13,11,16.20
2013,04,25,13,12,16.30
2013,04,25,13,13,16.30
2013,04,25,13,14,16.30
2013,04,25,13,15,16.30
2013,04,25,13,16,16.30
2013,04,25,13,17,16.30
2013,04,25,13,18,16.30
2013,04,25,13,19,16.30
2013,04,25,13,20,16.40
2013,04,25,13,21,16.40
2013,04,25,13,22,16.40
2013,04,25,13,23,16.40
2013,04,25,13,24,16.40
2013,04,25,13,25,16.40
2013,04,25,13,26,16.40
2013,04,25,13,27,16.40
2013,04,25,13,28,16.40
2013,04,25,13,29,16.40
2013,04,25,13,30,16.30
2013,04,25,13,31,16.30
2013,04,25,13,32,16.30
2013,04,25,13,33,16.20
2013,04,25,13,34,16.20
2013,04,25,13,35,16.20
2013,04,25,13,36,16.20
2013,04,25,13,37,16.20
2013,04,25,13,38,16.20
2013,04,25,13,39,16.20
2013,04,25,13,40,16.20
2013,04,25,13,41,16.30
2013,04,25,13,42,16.40
2013,04,25,13,43,16.40
2013,04,25,13,44,16.50
2013,04,25,13,45,16.70
2013,04,25,13,46,16.80
2013,04,25,13,47,16.90
2013,04,25,13,48,17.00
2013,04,25,13,49,17.00
2013,04,25,13,50,17.10
2013,04,25,13,51,17.10
2013,04,25,13,52,17.20
2013,04,25,13,53,17.30
2013,04,25,13,54,17.30
2013,04,25,13,55,17.40
2013,04,25,13,56,17.40
2013,04,25,13,57,17.40
2013,04,25,13,58,17.30
2013,04,25,13,59,17.30
2013,04,25,14,00,17.40
2013,04,25,14,01,17.40
2013,04,25,14,02,17.50
2013,04,25,14,03,17.50
2013,04,25,14,04,17.50
2013,04,25,14,05,17.50
2013,04,25,14,06,17.50
2013,04,25,14,07,17.50
2013,04,25,14,08,17.50
2013,04,25,14,09,17.60
2013,04,25,14,10,17.70
2013,04,25,14,11,17.70
2013,04,25,14,12,17.70
2013,04,25,14,13,17.80
2013,04,25,14,14,17.90
2013,04,25,14,15,17.90
2013,04,25,14,16,17.90
2013,04,25,14,17,17.90
2013,04,25,14,18,17.90
2013,04,25,14,19,17.90
2013,04,25,14,20,17.90
2013,04,25,14,21,17.90
2013,04,25,14,22,17.90
2013,04,25,14,23,17.90
2013,04,25,14,24,17.90
2013,04,25,14,25,18.00
2013,04,25,14,26,18.10
2013,04,25,14,27,18.20
2013,04,25,14,28,18.20
2013,04,25,14,29,18.30
2013,04,25,14,30,18.30
2013,04,25,14,31,18.30
2013,04,25,14,32,18.30
2013,04,25,14,33,18.40
2013,04,25,14,34,18.40
2013,04,25,14,35,18.40
2013,04,25,14,36,18.40
2013,04,25,14,37,18.40
2013,04,25,14,38,18.40
2013,04,25,14,39,18.40
2013,04,25,14,40,18.30
2013,04,25,14,41,18.30
2013,04,25,14,42,18.30
2013,04,25,14,43,18.30
2013,04,25,14,44,18.30
2013,04,25,14,45,18.30
2013,04,25,14,46,18.30
2013,04,25,14,47,18.40
2013,04,25,14,48,18.40
2013,04,25,14,49,18.40
2013,04,25,14,50,18.40
2013,04,25,14,51,18.40
2013,04,25,14,52,18.40
2013,04,25,14,53,18.30
2013,04,25,14,54,18.30
2013,04,25,14,55,18.30
2013,04,25,14,56,18.20
2013,04,25,14,57,18.20
2013,04,25,14,58,18.20
2013,04,25,14,59,18.20
2013,04,25,15,00,18.20
2013,04,25,15,01,18.20
2013,04,25,15,02,18.20
2013,04,25,15,03,18.20
2013,04,25,15,04,18.10
2013,04,25,15,05,18.10
2013,04,25,15,06,18.10
2013,04,25,15,07,18.00
2013,04,25,15,08,17.90
2013,04,25,15,09,17.90
2013,04,25,15,10,17.90
2013,04,25,15,11,18.00
2013,04,25,15,12,18.10
2013,04,25,15,13,18.10
2013,04,25,15,14,18.20
2013,04,25,15,15,18.20
2013,04,25,15,16,18.30
2013,04,25,15,17,18.40
2013,04,25,15,18,18.40
2013,04,25,15,19,18.40
2013,04,25,15,20,18.40
2013,04,25,15,21,18.40
2013,04,25,15,22,18.40
2013,04,25,15,23,18.40
2013,04,25,15,24,18.40
2013,04,25,15,25,18.40
2013,04,25,15,26,18.40
2013,04,25,15,27,18.40
2013,04,25,15,28,18.40
2013,04,25,15,29,18.40
2013,04,25,15,30,18.30
2013,04,25,15,31,18.30
2013,04,25,15,32,18.20
2013,04,25,15,33,18.20
2013,04,25,15,34,18.00
2013,04,25,15,35,17.90
2013,04,25,15,36,17.80
2013,04,25,15,37,17.80
2013,04,25,15,38,17.70
2013,04,25,15,39,17.60
2013,04,25,15,40,17.50
2013,04,25,15,41,17.40
2013,04,25,15,42,17.30
2013,04,25,15,43,17.30
2013,04,25,15,44,17.30
2013,04,25,15,45,17.20
2013,04,25,15,46,17.20
2013,04,25,15,47,17.10
2013,04,25,15,48,17.10
2013,04,25,15,49,17.00
2013,04,25,15,50,16.90
2013,04,25,15,51,16.90
2013,04,25,15,52,16.90
2013,04,25,15,53,16.80
2013,04,25,15,54,16.80
2013,04,25,15,55,16.80
2013,04,25,15,56,16.70
2013,04,25,15,57,16.70
2013,04,25,15,58,16.70
2013,04,25,15,59,16.70
2013,04,25,16,00,16.70
2013,04,25,16,01,16.70
2013,04,25,16,02,16.70
2013,04,25,16,03,16.70
2013,04,25,16,04,16.60
2013,04,25,16,05,16.60
2013,04,25,16,06,16.60
2013,04,25,16,07,16.40
2013,04,25,16,08,16.40
2013,04,25,16,09,16.40
2013,04,25,16,10,16.40
2013,04,25,16,11,16.40
2013,04,25,16,12,16.30
2013,04,25,16,13,16.30
2013,04,25,16,14,16.30
2013,04,25,16,15,16.30
2013,04,25,16,16,16.30
2013,04,25,16,17,16.30
2013,04,25,16,18,16.20
2013,04,25,16,19,16.20
2013,04,25,16,20,16.20
2013,04,25,16,21,16.20
2013,04,25,16,22,16.20
2013,04,25,16,23,16.20
2013,04,25,16,24,16.20
2013,04,25,16,25,16.20
2013,04,25,16,26,16.20
2013,04,25,16,27,16.20
2013,04,25,16,28,16.20
2013,04,25,16,29,16.20
2013,04,25,16,30,16.20
2013,04,25,16,31,16.20
2013,04,25,16,32,16.20
2013,04,25,16,33,16.20
2013,04,25,16,34,16.20
2013,04,25,16,35,16.20
2013,04,25,16,36,16.30
2013,04,25,16,37,16.30
2013,04,25,16,38,16.30
2013,04,25,16,39,16.30
2013,04,25,16,40,16.30
2013,04,25,16,41,16.30
2013,04,25,16,42,16.30
2013,04,25,16,43,16.40
2013,04,25,16,44,16.40
2013,04,25,16,45,16.40
2013,04,25,16,46,16.40
2013,04,25,16,47,16.50
2013,04,25,16,48,16.60
2013,04,25,16,49,16.60
2013,04,25,16,50,16.60
2013,04,25,16,51,16.70
2013,04,25,16,52,16.70
2013,04,25,16,53,16.70
2013,04,25,16,54,16.70
2013,04,25,16,55,16.70
2013,04,25,16,56,16.70
2013,04,25,16,57,16.70
2013,04,25,16,58,16.70
2013,04,25,16,59,16.70
2013,04,25,17,00,16.70
2013,04,25,17,01,16.70
2013,04,25,17,02,16.70
2013,04,25,17,03,16.70
2013,04,25,17,04,16.70
2013,04,25,17,05,16.70
2013,04,25,17,06,16.70
2013,04,25,17,07,16.70
2013,04,25,17,08,16.70
2013,04,25,17,09,16.70
2013,04,25,17,10,16.70
2013,04,25,17,11,16.70
2013,04,25,17,12,16.70
2013,04,25,17,13,16.70
2013,04,25,17,14,16.70
2013,04,25,17,15,16.70
2013,04,25,17,16,16.70
2013,04,25,17,17,16.70
2013,04,25,17,18,16.70
2013,04,25,17,19,16.70
2013,04,25,17,20,16.60
2013,04,25,17,21,16.60
2013,04,25,17,22,16.60
2013,04,25,17,23,16.60
2013,04,25,17,24,16.60
2013,04,25,17,25,16.50
2013,04,25,17,26,16.40
2013,04,25,17,27,16.40
2013,04,25,17,28,16.40
2013,04,25,17,29,16.40
2013,04,25,17,30,16.40
2013,04,25,17,31,16.40
2013,04,25,17,32,16.40
2013,04,25,17,33,16.40
2013,04,25,17,34,16.30
2013,04,25,17,35,16.30
2013,04,25,17,36,16.30
2013,04,25,17,37,16.20
2013,04,25,17,38,16.20
2013,04,25,17,39,16.20
2013,04,25,17,40,16.10
2013,04,25,17,41,16.10
2013,04,25,17,42,16.10
2013,04,25,17,43,16.10